Tracking 30072 objects as of 15-Jan-2025
HD Live streaming from Space Station
objects crossing your sky now

KOREASAT 116

Track KOREASAT 116 now!


NORAD ID: 45920
Int'l Code: 2020-048A
Perigee: 35,791.5 km
Apogee: 35,799.8 km
Inclination: 0.0 °
Period: 1,436.2 minutes
Semi major axis: 42166 km
RCS: Unknown
Launch date: July 20, 2020
Source: United States (US)
Launch site: AIR FORCE EASTERN TEST RANGE (AFETR)
Your satellite tracking list
Your tracking list is empty




NASA's NSSDC Master Catalog

Two Line Element Set (TLE):
1 45920U 20048A   25014.63686263 -.00000363  00000-0  00000-0 0  9999
2 45920   0.0370 284.0739 0000992  11.0877 164.6221  1.00264951 16444
Source of the keplerian elements: AFSPC